Location: Newark
(44.2003°N, 3.2583°E)
Time: 20:57:34
(UTC+00:00)

Courier 1B Rocket - Pass Details

Date: 26 October 2019
Orbit: 920 x 1202 km, 28.2° (Epoch: 12 November)

Event Time Altitude Azimuth Distance (km) Brightness Sun altitude
Exits shadow 02:52:55 11° 144° (SE) 2,520 7.3 -36.5°
Drops below altitude 10° 02:53:17 10° 141° (SE) 2,603 7.4 -36.4°
Sets 02:56:43 0° 123° (ESE) 3,546 8.4 -35.8°
